| time (UTC) | temp C | wind direction | speed KPH | gust KPH | rain 1hr cm | rain 24hr cm | rain mn cm | humidity % | barometer mb |
| 20260505130109 | 13 | 131 | 4.8 | 16.1 | 0.00 | 1.42 | 0.58 | 80 | 1013.9 |
| 20260505124623 | 13 | 138 | 3.2 | 12.9 | 0.00 | 1.42 | 0.58 | 81 | 1013.7 |
| 20260505124056 | 13 | 0 | 0.0 | 11.3 | 0.00 | 1.42 | 0.58 | 83 | 1013.8 |
| 20260505123557 | 13 | 0 | 0.0 | 11.3 | 0.00 | 1.42 | 0.58 | 84 | 1013.9 |
| 20260505123132 | 13 | 0 | 0.0 | 4.8 | 0.00 | 1.42 | 0.58 | 84 | 1013.9 |
| 20260505122557 | 13 | 0 | 0.0 | 4.8 | 0.00 | 1.42 | 0.58 | 85 | 1013.9 |
| 20260505122057 | 12 | 0 | 0.0 | 4.8 | 0.00 | 1.42 | 0.58 | 85 | 1013.9 |
| 20260505121555 | 12 | 0 | 0.0 | 4.8 | 0.00 | 1.42 | 0.58 | 86 | 1013.9 |
| 20260505121057 | 12 | 0 | 0.0 | 4.8 | 0.00 | 1.42 | 0.58 | 86 | 1014.0 |
| 20260505120555 | 12 | 0 | 0.0 | 6.4 | 0.00 | 1.42 | 0.58 | 86 | 1013.9 |
| 20260505120112 | 12 | 0 | 0.0 | 9.7 | 0.00 | 1.42 | 0.58 | 86 | 1014.0 |
| 20260505115555 | 12 | 0 | 0.0 | 9.7 | 0.00 | 1.42 | 0.58 | 85 | 1014.1 |
| 20260505115055 | 12 | 0 | 0.0 | 6.4 | 0.00 | 1.42 | 0.58 | 85 | 1014.0 |
| 20260505114558 | 12 | 0 | 0.0 | 6.4 | 0.00 | 1.42 | 0.58 | 85 | 1014.1 |
| 20260505114056 | 12 | 0 | 0.0 | 9.7 | 0.00 | 1.42 | 0.58 | 85 | 1014.3 |
| 20260505113559 | 12 | 136 | 0.0 | 9.7 | 0.00 | 1.42 | 0.58 | 85 | 1014.2 |
| 20260505113104 | 12 | 0 | 0.0 | 9.7 | 0.00 | 1.42 | 0.58 | 85 | 1014.3 |
| 20260505112558 | 12 | 0 | 0.0 | 0.0 | 0.00 | 1.42 | 0.58 | 85 | 1014.2 |
| 20260505112056 | 12 | 0 | 0.0 | 0.0 | 0.00 | 1.42 | 0.58 | 85 | 1014.4 |
| 20260505111556 | 12 | 0 | 0.0 | 0.0 | 0.00 | 1.42 | 0.58 | 86 | 1014.4 |
| 20260505111057 | 12 | 0 | 0.0 | 4.8 | 0.00 | 1.42 | 0.58 | 86 | 1014.4 |
| 20260505110555 | 12 | 0 | 0.0 | 4.8 | 0.00 | 1.42 | 0.58 | 86 | 1014.4 |
| 20260505102056 | 11 | 0 | 0.0 | 0.0 | 0.00 | 1.45 | 0.58 | 87 | 1014.6 |
| 20260505101601 | 11 | 0 | 0.0 | 0.0 | 0.00 | 1.45 | 0.58 | 86 | 1014.6 |
| 20260505101056 | 11 | 0 | 0.0 | 0.0 | 0.00 | 1.45 | 0.58 | 87 | 1014.8 |
| 20260505100558 | 11 | 0 | 0.0 | 0.0 | 0.00 | 1.45 | 0.58 | 87 | 1014.7 |
| 20260505100100 | 11 | 0 | 0.0 | 0.0 | 0.00 | 1.45 | 0.58 | 87 | 1014.6 |
| 20260505095556 | 11 | 0 | 0.0 | 0.0 | 0.00 | 1.45 | 0.58 | 88 | 1014.6 |
| 20260505095059 | 11 | 0 | 0.0 | 0.0 | 0.00 | 1.45 | 0.58 | 88 | 1014.7 |
| 20260505094605 | 11 | 0 | 0.0 | 4.8 | 0.00 | 1.45 | 0.58 | 88 | 1014.6 |
| 20260505094057 | 11 | 0 | 0.0 | 6.4 | 0.00 | 1.45 | 0.58 | 89 | 1014.6 |
| 20260505093557 | 11 | 86 | 0.0 | 6.4 | 0.00 | 1.45 | 0.58 | 89 | 1014.6 |
| 20260505093058 | 11 | 0 | 0.0 | 4.8 | 0.00 | 1.45 | 0.58 | 89 | 1014.6 |
| 20260505092556 | 11 | 0 | 0.0 | 4.8 | 0.00 | 1.45 | 0.58 | 89 | 1014.6 |
| 20260505092056 | 11 | 0 | 0.0 | 4.8 | 0.00 | 1.45 | 0.58 | 89 | 1014.6 |
| 20260505091607 | 11 | 0 | 0.0 | 6.4 | 0.00 | 1.45 | 0.58 | 89 | 1014.6 |
| 20260505091056 | 10 | 0 | 0.0 | 8.0 | 0.00 | 1.45 | 0.58 | 89 | 1014.7 |
| 20260505090556 | 10 | 0 | 0.0 | 8.0 | 0.00 | 1.45 | 0.58 | 88 | 1014.6 |
| 20260505085558 | 10 | 0 | 0.0 | 0.0 | 0.00 | 1.42 | 0.56 | 88 | 1014.6 |
| 20260505085055 | 10 | 0 | 0.0 | 0.0 | 0.00 | 1.42 | 0.56 | 88 | 1014.7 |
| 20260505084606 | 10 | 0 | 0.0 | 0.0 | 0.00 | 1.42 | 0.56 | 88 | 1014.5 |
| 20260505084055 | 10 | 0 | 0.0 | 0.0 | 0.00 | 1.42 | 0.56 | 89 | 1014.5 |
| 20260505083558 | 10 | 0 | 0.0 | 0.0 | 0.00 | 1.42 | 0.56 | 89 | 1014.3 |
| 20260505083107 | 10 | 0 | 0.0 | 0.0 | 0.00 | 1.42 | 0.56 | 89 | 1014.3 |
| 20260505082555 | 10 | 0 | 0.0 | 0.0 | 0.00 | 1.42 | 0.56 | 89 | 1014.3 |
| 20260505082056 | 10 | 0 | 0.0 | 0.0 | 0.00 | 1.42 | 0.56 | 89 | 1014.3 |
| 20260505081556 | 10 | 0 | 0.0 | 0.0 | 0.00 | 1.42 | 0.56 | 90 | 1014.3 |
| 20260505081148 | 10 | 0 | 0.0 | 0.0 | 0.00 | 1.42 | 0.56 | 90 | 1014.1 |
| 20260505080556 | 10 | 0 | 0.0 | 0.0 | 0.00 | 1.42 | 0.56 | 90 | 1014.1 |
| 20260505080059 | 10 | 0 | 0.0 | 0.0 | 0.00 | 1.42 | 0.56 | 90 | 1014.0 |
| 20260505075556 | 10 | 0 | 0.0 | 0.0 | 0.00 | 1.42 | 0.56 | 90 | 1014.0 |
| 20260505075055 | 10 | 0 | 0.0 | 0.0 | 0.00 | 1.42 | 0.56 | 91 | 1014.0 |
| 20260505074556 | 10 | 0 | 0.0 | 0.0 | 0.00 | 1.42 | 0.56 | 91 | 1014.0 |
| 20260505074056 | 10 | 0 | 0.0 | 0.0 | 0.00 | 1.42 | 0.56 | 91 | 1014.0 |
| 20260505073555 | 10 | 0 | 0.0 | 0.0 | 0.00 | 1.42 | 0.56 | 91 | 1014.1 |
| 20260505073103 | 10 | 0 | 0.0 | 0.0 | 0.00 | 1.42 | 0.56 | 91 | 1014.0 |
| 20260505072600 | 10 | 0 | 0.0 | 0.0 | 0.00 | 1.42 | 0.56 | 91 | 1014.0 |
| 20260505072058 | 10 | 0 | 0.0 | 0.0 | 0.00 | 1.42 | 0.56 | 91 | 1014.1 |
| 20260505071600 | 10 | 0 | 0.0 | 0.0 | 0.00 | 1.42 | 0.56 | 91 | 1014.3 |
| 20260505071058 | 10 | 0 | 0.0 | 0.0 | 0.00 | 1.42 | 0.56 | 91 | 1014.1 |
| 20260505070559 | 10 | 0 | 0.0 | 0.0 | 0.00 | 1.42 | 0.56 | 92 | 1014.1 |
| 20260505070106 | 10 | 0 | 0.0 | 0.0 | 0.00 | 1.42 | 0.56 | 92 | 1014.1 |
| 20260505065556 | 9 | 0 | 0.0 | 0.0 | 0.00 | 1.42 | 0.56 | 92 | 1014.1 |
| 20260505065058 | 9 | 0 | 0.0 | 0.0 | 0.00 | 1.42 | 0.56 | 92 | 1014.0 |
| 20260505064559 | 9 | 0 | 0.0 | 6.4 | 0.00 | 1.42 | 0.56 | 91 | 1014.1 |
| 20260505064057 | 9 | 0 | 0.0 | 6.4 | 0.00 | 1.42 | 0.56 | 91 | 1014.2 |
| 20260505063557 | 9 | 0 | 1.6 | 6.4 | 0.00 | 1.42 | 0.56 | 91 | 1014.1 |
| 20260505063059 | 9 | 0 | 0.0 | 6.4 | 0.00 | 1.42 | 0.56 | 91 | 1014.2 |
| 20260505062559 | 9 | 311 | 0.0 | 0.0 | 0.00 | 1.42 | 0.56 | 91 | 1014.2 |
| 20260505062101 | 9 | 0 | 0.0 | 0.0 | 0.00 | 1.42 | 0.56 | 91 | 1014.2 |
| 20260505061630 | 9 | 0 | 0.0 | 0.0 | 0.00 | 1.42 | 0.56 | 91 | 1014.3 |
| 20260505061056 | 9 | 0 | 0.0 | 0.0 | 0.00 | 1.42 | 0.56 | 91 | 1014.2 |
| 20260505060556 | 9 | 0 | 0.0 | 0.0 | 0.00 | 1.42 | 0.56 | 91 | 1014.2 |
| 20260505060100 | 9 | 0 | 0.0 | 4.8 | 0.00 | 1.42 | 0.56 | 91 | 1014.2 |
| 20260505055557 | 9 | 0 | 0.0 | 4.8 | 0.00 | 1.42 | 0.56 | 91 | 1014.2 |
| 20260505055057 | 9 | 0 | 0.0 | 6.4 | 0.00 | 1.42 | 0.56 | 91 | 1014.1 |
| 20260505054557 | 9 | 0 | 0.0 | 9.7 | 0.00 | 1.42 | 0.56 | 91 | 1014.2 |
| 20260505054057 | 9 | 0 | 1.6 | 9.7 | 0.00 | 1.42 | 0.56 | 92 | 1014.2 |
| 20260505053557 | 9 | 0 | 0.0 | 0.0 | 0.00 | 1.42 | 0.56 | 91 | 1014.1 |
| 20260505053056 | 9 | 0 | 0.0 | 6.4 | 0.03 | 1.42 | 0.56 | 91 | 1014.1 |
| 20260505052557 | 9 | 0 | 0.0 | 6.4 | 0.05 | 1.42 | 0.56 | 91 | 1014.2 |
| 20260505052058 | 9 | 0 | 0.0 | 6.4 | 0.08 | 1.42 | 0.56 | 91 | 1014.3 |
| 20260505051557 | 9 | 0 | 0.0 | 0.0 | 0.08 | 1.42 | 0.56 | 91 | 1014.3 |
| 20260505051057 | 9 | 0 | 0.0 | 0.0 | 0.10 | 1.42 | 0.56 | 91 | 1014.3 |
| 20260505050556 | 9 | 0 | 0.0 | 0.0 | 0.15 | 1.42 | 0.56 | 91 | 1014.3 |
| 20260505041604 | 9 | 0 | 0.0 | 0.0 | 0.23 | 1.32 | 0.46 | 91 | 1014.8 |
| 20260505041057 | 9 | 0 | 0.0 | 0.0 | 0.23 | 1.30 | 0.46 | 91 | 1014.9 |
| 20260505040556 | 9 | 0 | 0.0 | 0.0 | 0.20 | 1.27 | 0.41 | 91 | 1015.0 |
| 20260505035557 | 9 | 0 | 0.0 | 0.0 | 0.18 | 1.22 | 0.36 | 91 | 1015.3 |
| 20260505035057 | 9 | 0 | 0.0 | 4.8 | 0.18 | 1.22 | 0.36 | 91 | 1015.3 |
| 20260505034602 | 9 | 0 | 0.0 | 4.8 | 0.18 | 1.19 | 0.33 | 91 | 1015.2 |
| 20260505034059 | 9 | 0 | 0.0 | 4.8 | 0.18 | 1.17 | 0.30 | 91 | 1015.2 |
| 20260505033557 | 9 | 0 | 0.0 | 0.0 | 0.18 | 1.14 | 0.28 | 91 | 1015.1 |
| 20260505033104 | 9 | 0 | 0.0 | 0.0 | 0.18 | 1.12 | 0.28 | 91 | 1015.0 |
| 20260505032557 | 9 | 0 | 0.0 | 0.0 | 0.18 | 1.12 | 0.25 | 91 | 1015.0 |
| 20260505032058 | 9 | 0 | 0.0 | 0.0 | 0.18 | 1.12 | 0.25 | 91 | 1014.9 |
| 20260505031558 | 9 | 0 | 0.0 | 0.0 | 0.18 | 1.09 | 0.23 | 91 | 1014.9 |
| 20260505031056 | 9 | 0 | 0.0 | 0.0 | 0.18 | 1.07 | 0.20 | 91 | 1015.1 |
| 20260505030558 | 9 | 0 | 0.0 | 0.0 | 0.15 | 1.04 | 0.18 | 91 | 1015.2 |
| 20260505030057 | 9 | 0 | 0.0 | 0.0 | 0.13 | 1.02 | 0.18 | 91 | 1015.3 |
| 20260505025558 | 9 | 0 | 0.0 | 0.0 | 0.15 | 1.02 | 0.18 | 91 | 1015.3 |
| 20260505025056 | 9 | 0 | 0.0 | 0.0 | 0.13 | 1.02 | 0.15 | 91 | 1015.3 |
| 20260505024558 | 9 | 0 | 0.0 | 0.0 | 0.10 | 0.99 | 0.13 | 91 | 1015.2 |
| 20260505024057 | 9 | 0 | 0.0 | 0.0 | 0.08 | 0.97 | 0.10 | 91 | 1015.2 |
| 20260505023557 | 9 | 0 | 0.0 | 0.0 | 0.08 | 0.94 | 0.08 | 91 | 1015.3 |
| 20260505023107 | 9 | 0 | 0.0 | 0.0 | 0.05 | 0.94 | 0.08 | 91 | 1015.2 |
| 20260505022557 | 9 | 0 | 0.0 | 0.0 | 0.05 | 0.94 | 0.08 | 91 | 1015.1 |
| 20260505022059 | 9 | 0 | 0.0 | 0.0 | 0.03 | 0.91 | 0.05 | 91 | 1015.2 |
| 20260505021556 | 9 | 0 | 0.0 | 0.0 | 0.03 | 0.91 | 0.05 | 91 | 1015.1 |
| 20260505021056 | 9 | 0 | 0.0 | 0.0 | 0.00 | 0.89 | 0.03 | 91 | 1015.1 |
| 20260505020557 | 10 | 0 | 0.0 | 0.0 | 0.00 | 0.89 | 0.03 | 91 | 1015.0 |
| 20260505020137 | 10 | 0 | 0.0 | 0.0 | 0.00 | 0.89 | 0.03 | 91 | 1015.1 |
| 20260505015558 | 9 | 0 | 0.0 | 0.0 | 0.00 | 0.86 | 0.00 | 91 | 1015.0 |
| 20260505015057 | 9 | 0 | 0.0 | 0.0 | 0.00 | 0.86 | 0.00 | 91 | 1015.0 |
| 20260505014557 | 9 | 0 | 0.0 | 4.8 | 0.00 | 0.86 | 0.00 | 90 | 1015.0 |
| 20260505014056 | 9 | 0 | 0.0 | 8.0 | 0.00 | 0.86 | 0.00 | 91 | 1015.1 |
| 20260505013556 | 9 | 0 | 0.0 | 9.7 | 0.00 | 0.86 | 0.00 | 90 | 1015.1 |
| 20260505013058 | 9 | 0 | 4.8 | 9.7 | 0.00 | 0.86 | 0.00 | 90 | 1015.2 |
| 20260505012556 | 10 | 0 | 0.0 | 0.0 | 0.00 | 0.86 | 0.00 | 91 | 1015.2 |
| 20260505012055 | 10 | 0 | 0.0 | 6.4 | 0.00 | 0.86 | 0.00 | 91 | 1015.3 |
| 20260505011602 | 10 | 0 | 0.0 | 6.4 | 0.00 | 0.86 | 0.00 | 91 | 1015.4 |
| 20260505011059 | 10 | 0 | 0.0 | 0.0 | 0.00 | 0.86 | 0.00 | 91 | 1015.4 |
| 20260505010557 | 10 | 0 | 0.0 | 0.0 | 0.00 | 0.86 | 0.00 | 91 | 1015.6 |
| 20260505010106 | 10 | 0 | 0.0 | 0.0 | 0.00 | 0.86 | 0.00 | 90 | 1015.5 |
| 20260505005557 | 10 | 0 | 0.0 | 0.0 | 0.00 | 0.86 | 0.00 | 90 | 1015.6 |
| 20260505005059 | 10 | 0 | 0.0 | 0.0 | 0.00 | 0.84 | 0.00 | 90 | 1015.8 |
| 20260505004600 | 10 | 0 | 0.0 | 0.0 | 0.00 | 0.84 | 0.00 | 90 | 1015.8 |
| 20260505004055 | 10 | 0 | 0.0 | 0.0 | 0.00 | 0.84 | 0.00 | 90 | 1016.2 |
| 20260505003556 | 10 | 0 | 0.0 | 0.0 | 0.00 | 0.84 | 0.00 | 90 | 1016.4 |
| 20260505003054 | 10 | 0 | 0.0 | 0.0 | 0.00 | 0.84 | 0.00 | 90 | 1016.6 |
| 20260505002557 | 10 | 0 | 0.0 | 0.0 | 0.00 | 0.84 | 0.00 | 90 | 1016.6 |
| 20260505002059 | 10 | 0 | 0.0 | 0.0 | 0.00 | 0.84 | 0.00 | 90 | 1016.8 |
| 20260505001555 | 10 | 0 | 0.0 | 0.0 | 0.00 | 0.84 | 0.00 | 90 | 1016.8 |
| 20260505001056 | 10 | 0 | 0.0 | 0.0 | 0.00 | 0.84 | 0.00 | 90 | 1016.9 |
| 20260505000557 | 10 | 0 | 0.0 | 0.0 | 0.00 | 0.84 | 0.00 | 90 | 1017.0 |
| 20260505000107 | 10 | 0 | 0.0 | 0.0 | 0.00 | 0.84 | 0.00 | 90 | 1017.1 |
| 20260504235556 | 10 | 0 | 0.0 | 0.0 | 0.00 | 0.84 | 0.00 | 90 | 1017.1 |
| 20260504235055 | 10 | 0 | 0.0 | 0.0 | 0.00 | 0.84 | 0.00 | 90 | 1017.2 |
| 20260504234611 | 10 | 0 | 0.0 | 0.0 | 0.00 | 0.84 | 0.00 | 90 | 1017.2 |
| 20260504234100 | 10 | 0 | 0.0 | 8.0 | 0.00 | 0.84 | 0.00 | 90 | 1017.2 |
| 20260504233557 | 10 | 0 | 0.0 | 8.0 | 0.00 | 0.84 | 0.00 | 90 | 1017.3 |
| 20260504233058 | 10 | 207 | 0.0 | 6.4 | 0.00 | 0.84 | 0.00 | 90 | 1017.2 |
| 20260504232555 | 10 | 0 | 0.0 | 11.3 | 0.00 | 0.84 | 0.00 | 90 | 1017.2 |
| 20260504232059 | 10 | 0 | 1.6 | 11.3 | 0.00 | 0.84 | 0.00 | 90 | 1017.3 |
| 20260504231556 | 10 | 266 | 0.0 | 6.4 | 0.00 | 0.84 | 0.00 | 90 | 1017.3 |
| 20260504231056 | 10 | 0 | 0.0 | 0.0 | 0.00 | 0.84 | 0.00 | 90 | 1017.5 |
| 20260504230556 | 10 | 0 | 0.0 | 0.0 | 0.00 | 0.84 | 0.00 | 90 | 1017.5 |
| 20260504230056 | 10 | 0 | 0.0 | 0.0 | 0.00 | 0.84 | 0.00 | 90 | 1017.7 |
| 20260504225557 | 10 | 0 | 0.0 | 0.0 | 0.00 | 0.84 | 0.00 | 90 | 1017.8 |
| 20260504225057 | 10 | 0 | 0.0 | 3.2 | 0.00 | 0.84 | 0.00 | 90 | 1018.0 |
| 20260504224604 | 10 | 0 | 0.0 | 3.2 | 0.00 | 0.84 | 0.00 | 90 | 1018.0 |
| 20260504224056 | 10 | 0 | 0.0 | 0.0 | 0.00 | 0.84 | 0.00 | 90 | 1018.0 |
| 20260504223556 | 10 | 0 | 0.0 | 0.0 | 0.00 | 0.84 | 0.00 | 90 | 1018.0 |
| 20260504223055 | 10 | 0 | 0.0 | 0.0 | 0.00 | 0.84 | 0.00 | 90 | 1018.1 |
| 20260504222553 | 10 | 0 | 0.0 | 0.0 | 0.00 | 0.84 | 0.00 | 90 | 1018.2 |
| 20260504222101 | 10 | 0 | 0.0 | 0.0 | 0.00 | 0.84 | 0.00 | 90 | 1018.0 |
| 20260504221557 | 10 | 0 | 0.0 | 0.0 | 0.00 | 0.84 | 0.00 | 90 | 1018.1 |
| 20260504221056 | 10 | 0 | 0.0 | 0.0 | 0.00 | 0.84 | 0.00 | 90 | 1018.2 |
| 20260504220557 | 10 | 0 | 0.0 | 6.4 | 0.00 | 0.84 | 0.00 | 90 | 1018.3 |
| 20260504220104 | 10 | 0 | 0.0 | 11.3 | 0.00 | 0.84 | 0.00 | 90 | 1018.5 |
| 20260504215559 | 10 | 285 | 1.6 | 12.9 | 0.03 | 0.84 | 0.84 | 90 | 1018.5 |
| 20260504215056 | 10 | 304 | 4.8 | 12.9 | 0.03 | 0.84 | 0.84 | 90 | 1018.6 |
| 20260504214600 | 10 | 331 | 0.0 | 9.7 | 0.05 | 0.84 | 0.84 | 89 | 1018.6 |
| 20260504214056 | 10 | 0 | 0.0 | 0.0 | 0.08 | 0.84 | 0.84 | 89 | 1018.6 |
| 20260504213558 | 10 | 0 | 0.0 | 0.0 | 0.08 | 0.84 | 0.84 | 89 | 1018.8 |
| 20260504213111 | 10 | 0 | 0.0 | 0.0 | 0.08 | 0.84 | 0.84 | 89 | 1018.8 |
| 20260504212556 | 10 | 0 | 0.0 | 0.0 | 0.08 | 0.84 | 0.84 | 89 | 1018.9 |
| 20260504212057 | 10 | 0 | 0.0 | 0.0 | 0.10 | 0.84 | 0.84 | 89 | 1018.9 |
| 20260504211556 | 10 | 0 | 0.0 | 0.0 | 0.08 | 0.84 | 0.84 | 89 | 1018.9 |
| 20260504211056 | 10 | 0 | 0.0 | 0.0 | 0.08 | 0.84 | 0.84 | 89 | 1019.0 |
| 20260504210558 | 10 | 0 | 0.0 | 0.0 | 0.10 | 0.84 | 0.84 | 89 | 1019.1 |
| 20260504210105 | 10 | 0 | 0.0 | 0.0 | 0.10 | 0.84 | 0.84 | 89 | 1019.1 |
| 20260504205559 | 10 | 0 | 0.0 | 4.8 | 0.10 | 0.81 | 0.81 | 89 | 1019.2 |
| 20260504205059 | 10 | 0 | 0.0 | 4.8 | 0.13 | 0.81 | 0.81 | 89 | 1019.2 |
| 20260504204605 | 10 | 0 | 0.0 | 0.0 | 0.10 | 0.79 | 0.79 | 89 | 1019.3 |
| 20260504204056 | 10 | 0 | 0.0 | 0.0 | 0.10 | 0.76 | 0.76 | 89 | 1019.3 |
| 20260504203559 | 10 | 0 | 0.0 | 0.0 | 0.13 | 0.74 | 0.74 | 89 | 1019.3 |
| 20260504203058 | 10 | 0 | 0.0 | 0.0 | 0.15 | 0.74 | 0.74 | 89 | 1019.4 |
| 20260504202557 | 10 | 0 | 0.0 | 0.0 | 0.18 | 0.74 | 0.74 | 89 | 1019.2 |
| 20260504202058 | 10 | 0 | 0.0 | 0.0 | 0.18 | 0.74 | 0.74 | 88 | 1019.2 |
| 20260504201559 | 10 | 0 | 0.0 | 0.0 | 0.20 | 0.74 | 0.74 | 89 | 1019.3 |
| 20260504201058 | 10 | 0 | 0.0 | 0.0 | 0.23 | 0.74 | 0.74 | 89 | 1019.4 |
| 20260504200557 | 10 | 0 | 0.0 | 0.0 | 0.23 | 0.71 | 0.71 | 89 | 1019.4 |
| 20260504200056 | 10 | 0 | 0.0 | 0.0 | 0.23 | 0.71 | 0.71 | 89 | 1019.4 |
| 20260504195558 | 10 | 0 | 0.0 | 0.0 | 0.23 | 0.69 | 0.69 | 88 | 1019.2 |
| 20260504195056 | 10 | 0 | 0.0 | 0.0 | 0.23 | 0.66 | 0.66 | 88 | 1019.3 |
| 20260504194600 | 10 | 0 | 0.0 | 0.0 | 0.25 | 0.66 | 0.66 | 88 | 1019.2 |
| 20260504194059 | 10 | 0 | 0.0 | 0.0 | 0.25 | 0.64 | 0.64 | 88 | 1019.0 |
| 20260504193559 | 10 | 0 | 0.0 | 0.0 | 0.23 | 0.61 | 0.61 | 88 | 1019.1 |
| 20260504193112 | 10 | 0 | 0.0 | 0.0 | 0.23 | 0.58 | 0.58 | 88 | 1019.1 |
| 20260504192556 | 10 | 0 | 0.0 | 0.0 | 0.18 | 0.56 | 0.56 | 88 | 1019.1 |
| 20260504192100 | 10 | 0 | 0.0 | 0.0 | 0.20 | 0.53 | 0.53 | 88 | 1019.1 |
| 20260504191558 | 10 | 0 | 0.0 | 8.0 | 0.18 | 0.51 | 0.51 | 88 | 1019.0 |
| 20260504191057 | 10 | 0 | 1.6 | 8.0 | 0.18 | 0.48 | 0.48 | 88 | 1018.9 |
| 20260504190556 | 10 | 288 | 0.0 | 8.0 | 0.18 | 0.46 | 0.46 | 88 | 1019.1 |
| 20260504190108 | 11 | 0 | 0.0 | 0.0 | 0.18 | 0.46 | 0.46 | 88 | 1019.0 |
| 20260504185556 | 11 | 0 | 0.0 | 0.0 | 0.20 | 0.46 | 0.46 | 87 | 1018.9 |
| 20260504185058 | 11 | 0 | 0.0 | 0.0 | 0.20 | 0.43 | 0.43 | 87 | 1019.0 |
| 20260504184557 | 11 | 0 | 0.0 | 0.0 | 0.20 | 0.41 | 0.41 | 87 | 1019.0 |
| 20260504184059 | 11 | 0 | 0.0 | 0.0 | 0.18 | 0.38 | 0.38 | 87 | 1018.9 |
| 20260504183556 | 11 | 0 | 0.0 | 0.0 | 0.18 | 0.36 | 0.36 | 87 | 1019.0 |
| 20260504183102 | 11 | 0 | 0.0 | 0.0 | 0.18 | 0.36 | 0.36 | 86 | 1018.9 |
| 20260504182555 | 11 | 0 | 0.0 | 8.0 | 0.18 | 0.36 | 0.36 | 86 | 1018.9 |
| 20260504182058 | 11 | 0 | 0.0 | 8.0 | 0.18 | 0.30 | 0.30 | 86 | 1018.9 |
| 20260504181558 | 11 | 292 | 3.2 | 8.0 | 0.20 | 0.30 | 0.30 | 85 | 1018.9 |
| 20260504181059 | 11 | 294 | 3.2 | 8.0 | 0.23 | 0.30 | 0.30 | 85 | 1019.0 |
| 20260504180602 | 11 | 0 | 1.6 | 6.4 | 0.20 | 0.28 | 0.28 | 84 | 1018.9 |
| 20260504180132 | 11 | 0 | 0.0 | 8.0 | 0.18 | 0.25 | 0.25 | 85 | 1019.0 |
| 20260504175559 | 11 | 0 | 0.0 | 8.0 | 0.18 | 0.23 | 0.23 | 85 | 1019.0 |
| 20260504175058 | 11 | 297 | 0.0 | 6.4 | 0.18 | 0.20 | 0.20 | 84 | 1018.9 |
| 20260504174559 | 11 | 0 | 0.0 | 12.9 | 0.15 | 0.18 | 0.18 | 83 | 1019.0 |
| 20260504174059 | 12 | 302 | 1.6 | 12.9 | 0.15 | 0.18 | 0.18 | 84 | 1018.9 |
| 20260504173558 | 12 | 0 | 1.6 | 12.9 | 0.13 | 0.18 | 0.18 | 84 | 1018.9 |
| 20260504173058 | 12 | 288 | 0.0 | 0.0 | 0.15 | 0.18 | 0.18 | 84 | 1018.8 |
| 20260504172558 | 12 | 0 | 0.0 | 0.0 | 0.13 | 0.15 | 0.15 | 84 | 1018.8 |
| 20260504172058 | 12 | 0 | 0.0 | 8.0 | 0.08 | 0.10 | 0.10 | 84 | 1018.7 |
| 20260504171557 | 12 | 0 | 0.0 | 8.0 | 0.08 | 0.08 | 0.08 | 83 | 1018.7 |
| 20260504171057 | 12 | 283 | 0.0 | 8.0 | 0.05 | 0.08 | 0.08 | 83 | 1018.7 |
| 20260504170558 | 13 | 0 | 0.0 | 6.4 | 0.05 | 0.08 | 0.08 | 82 | 1018.7 |
| 20260504151059 | 14 | 0 | 0.0 | 0.0 | 0.00 | 0.00 | 0.00 | 79 | 1018.3 |
| 20260504150558 | 14 | 0 | 0.0 | 0.0 | 0.00 | 0.00 | 0.00 | 78 | 1018.3 |
| 20260504141057 | 14 | 0 | 0.0 | 9.7 | 0.00 | 0.00 | 0.00 | 75 | 1018.6 |
| 20260504140557 | 14 | 310 | 0.0 | 11.3 | 0.00 | 0.00 | 0.00 | 75 | 1018.6 |